Findlay, OH

5:58 PM EDT on March 26, 2017 (GMT -0400)
Findlay

Weather History for KFDY - March, 2014

Change the Weather History Date:

Tuesday, March 11, 2014

  Actual Average Record
Temperature  
Mean Temperature 48 °F -  
Max Temperature 59 °F 43 °F 74 °F (1990)
Min Temperature 37 °F 27 °F 6 °F (1969)
Degree Days  
Heating Degree Days 17    
Moisture  
Dew Point 40 °F    
Average Humidity 74    
Maximum Humidity 89    
Minimum Humidity 56    
Precipitation  
Precipitation 0.00 in - - ()
Sea Level Pressure  
Sea Level Pressure 29.66 in    
Wind  
Wind Speed 8 mph (West)    
Max Wind Speed 15 mph    
Max Gust Speed -    
Visibility 6 miles    
Events      
Averages and records for this station are not official NWS values.
T = Trace of Precipitation, MM = Missing Value Source: NWS Daily Summary

Daily Weather History Graph

Daily Weather History Graph

Search for Another Location

Airport or City:

Trip Planner

Search our weather history database for the weather conditions in past years. The results will help you decide how hot, cold, wet, or windy it might be!

Date:

Astronomy

Mar. 11, 2014 Rise Set
Actual Time 7:52 AM EDT 7:37 PM EDT
Civil Twilight 7:25 AM EDT 8:04 PM EDT
Nautical Twilight 6:53 AM EDT 8:36 PM EDT
Astronomical Twilight 6:21 AM EDT 9:08 PM EDT
Moon 3:10 PM EDT (3/11) 4:47 AM EDT (3/11)
Length of Visible Light 12h 38m
Length of Day
11h 44m
Waxing Gibbous, 78% of the Moon is Illuminated
Mar 11
Waxing Gibbous
Mar 16
Full
Mar 23
Last Quarter
Mar 30
New
Apr 7
First Quarter

Hourly Weather History & Observations

Time (EDT) Temp. Windchill Dew Point Humidity Pressure Visibility Wind Dir Wind Speed Gust Speed Precip Events Conditions
12:53 AM 44.1 °F 39.5 °F 37.0 °F 76% 29.67 in 8.0 mi WSW 8.1 mph - N/A   Clear
1:53 AM 44.1 °F 39.0 °F 37.0 °F 76% 29.67 in 8.0 mi WSW 9.2 mph - N/A   Clear
2:53 AM 43.0 °F 37.7 °F 37.0 °F 80% 29.68 in 8.0 mi WSW 9.2 mph - N/A   Clear
3:53 AM 42.1 °F 37.7 °F 37.0 °F 82% 29.67 in 8.0 mi WSW 6.9 mph - N/A   Clear
4:53 AM 39.0 °F 34.8 °F 35.1 °F 86% 29.66 in 6.0 mi SW 5.8 mph - N/A   Clear
5:53 AM 39.0 °F 36.8 °F 36.0 °F 89% 29.66 in 6.0 mi SSW 3.5 mph - N/A   Clear
6:53 AM 37.9 °F 32.1 °F 35.1 °F 89% 29.68 in 5.0 mi SSW 8.1 mph - N/A   Clear
7:53 AM 39.9 °F 37.8 °F 37.0 °F 89% 29.68 in 5.0 mi SW 3.5 mph - N/A   Clear
8:53 AM 42.1 °F 39.2 °F 37.9 °F 85% 29.69 in 4.0 mi West 4.6 mph - N/A   Partly Cloudy
9:53 AM 46.9 °F - 39.9 °F 77% 29.68 in 4.0 mi SW 4.6 mph - N/A   Haze
10:53 AM 50.0 °F - 41.0 °F 71% 29.69 in 5.0 mi WSW 6.9 mph - N/A   Haze
11:53 AM 52.0 °F - 42.1 °F 69% 29.67 in 5.0 mi SW 8.1 mph - N/A   Haze
12:53 PM 55.0 °F - 43.0 °F 64% 29.66 in 6.0 mi West 4.6 mph - N/A   Haze
1:53 PM 57.9 °F - 45.0 °F 62% 29.66 in 7.0 mi West 11.5 mph - N/A   Clear
2:53 PM 59.0 °F - 46.9 °F 64% 29.65 in 6.0 mi West 8.1 mph - N/A   Haze
3:53 PM 57.9 °F - 45.0 °F 62% 29.63 in 7.0 mi WNW 4.6 mph - N/A   Mostly Cloudy
4:53 PM 57.9 °F - 42.1 °F 56% 29.63 in 10.0 mi NNW 4.6 mph - N/A   Partly Cloudy
5:53 PM 54.0 °F - 45.0 °F 72% 29.62 in 6.0 mi North 8.1 mph - N/A   Haze
6:53 PM 52.0 °F - 43.0 °F 71% 29.65 in 6.0 mi North 9.2 mph - N/A   Haze
7:53 PM 48.0 °F - 39.0 °F 71% 29.66 in 8.0 mi North 5.8 mph - N/A   Clear
8:53 PM 46.9 °F - 41.0 °F 80% 29.66 in 5.0 mi NNE 9.2 mph - N/A   Haze
9:53 PM 46.0 °F 39.6 °F 36.0 °F 68% 29.67 in 7.0 mi NE 15.0 mph - N/A   Mostly Cloudy
10:53 PM 45.0 °F 39.3 °F 35.1 °F 68% 29.67 in 8.0 mi ENE 11.5 mph - N/A   Overcast
11:53 PM 43.0 °F 36.4 °F 35.1 °F 74% 29.65 in 7.0 mi NE 12.7 mph - N/A   Clear